Location: Newark
(35.4036°N, 80.4356°W)
Time: 03:17:32
(UTC+00:00)

Envisat - Pass Details

Date: 28 August 2019
Orbit: 764 x 766 km, 98.1° (Epoch: 19 September)

Event Time Altitude Azimuth Distance (km) Brightness Sun altitude
Rises 00:11:17 0° 185° (S) 3,216 6.1 -3.9°
Reaches altitude 10° 00:13:42 10° 192° (SSW) 2,294 5.5 -4.4°
Maximum altitude 00:18:26 40° 262° (W) 1,117 4.6 -5.3°
Drops below altitude 10° 00:23:12 10° 331° (NNW) 2,307 6.2 -6.2°
Sets 00:25:39 0° 339° (NNW) 3,237 6.8 -6.7°
